CW0566 Weather Reports


Display with metric or nautical units.
time (UTC)temp
F
wind
direction
speed
MPH
gust
MPH
rain 1hr
in
rain 24hr
in
rain mn
in
humidity
%
barometer
mb
20260505230016 79 270 4.0 11.0 0.00 0.00 0.00 44 1009.5
20260505225018 79 270 3.0 6.0 0.00 0.00 0.00 44 1009.6
20260505224017 80 293 6.0 15.0 0.00 0.00 0.00 44 1009.5
20260505223017 79 270 8.0 16.0 0.00 0.00 0.00 45 1009.6
20260505222016 79 270 7.0 17.0 0.00 0.00 0.00 45 1009.5
20260505221037 80 338 4.0 11.0 0.00 0.00 0.00 45 1009.5
20260505220038 81 315 6.0 16.0 0.00 0.00 0.00 44 1009.4
20260505215018 81 270 7.0 18.0 0.00 0.00 0.00 44 1009.5
20260505214037 81 270 9.0 19.0 0.00 0.00 0.00 42 1009.4
20260505213037 81 270 9.0 17.0 0.00 0.00 0.00 42 1009.4
20260505212016 82 270 9.0 16.0 0.00 0.00 0.00 41 1009.4
20260505211037 83 293 7.0 18.0 0.00 0.00 0.00 40 1009.5
20260505210017 83 270 5.0 15.0 0.00 0.00 0.00 41 1009.3
20260505205016 83 315 5.0 12.0 0.00 0.00 0.00 40 1009.1
20260505204057 83 270 8.0 19.0 0.00 0.00 0.00 38 1009.2
20260505203037 84 270 7.0 18.0 0.00 0.00 0.00 36 1009.2
20260505202018 84 338 5.0 14.0 0.00 0.00 0.00 36 1008.9
20260505201037 84 248 9.0 22.0 0.00 0.00 0.00 36 1009.0
20260505200016 84 293 7.0 16.0 0.00 0.00 0.00 37 1008.9
20260505195017 84 315 6.0 14.0 0.00 0.00 0.00 37 1009.1
20260505194016 83 315 9.0 22.0 0.00 0.00 0.00 38 1009.2
20260505193017 84 248 8.0 20.0 0.00 0.00 0.00 38 1009.3
20260505192016 84 293 9.0 19.0 0.00 0.00 0.00 41 1009.3
20260505191017 84 270 7.0 17.0 0.00 0.00 0.00 41 1009.4
20260505190016 84 270 7.0 17.0 0.00 0.00 0.00 43 1009.6
20260505185036 83 338 6.0 13.0 0.00 0.00 0.00 43 1009.7
20260505184017 83 270 6.0 16.0 0.00 0.00 0.00 45 1009.8
20260505183016 83 338 7.0 16.0 0.00 0.00 0.00 45 1009.8
20260505182016 83 315 8.0 17.0 0.00 0.00 0.00 45 1009.9
20260505181016 83 293 5.0 14.0 0.00 0.00 0.00 45 1010.0
20260505180016 83 270 6.0 15.0 0.00 0.00 0.00 44 1010.0
20260505175016 82 270 7.0 15.0 0.00 0.00 0.00 45 1010.5
20260505174036 83 315 7.0 15.0 0.00 0.00 0.00 46 1010.6
20260505173016 82 270 6.0 13.0 0.00 0.00 0.00 45 1010.8
20260505172017 82 270 5.0 14.0 0.00 0.00 0.00 48 1010.9
20260505171016 82 270 5.0 13.0 0.00 0.00 0.00 49 1010.9
20260505170016 82 270 5.0 14.0 0.00 0.00 0.00 48 1011.0
20260505165016 81 270 6.0 15.0 0.00 0.00 0.00 48 1011.0
20260505164016 81 293 5.0 13.0 0.00 0.00 0.00 50 1011.0
20260505163036 81 293 4.0 10.0 0.00 0.00 0.00 48 1011.1
20260505162016 81 338 2.0 6.0 0.00 0.00 0.00 51 1011.1
20260505161016 80 270 4.0 15.0 0.00 0.00 0.00 52 1011.1
20260505153016 78 315 3.0 10.0 0.00 0.00 0.00 55 1011.7
20260505152036 77 315 5.0 12.0 0.00 0.00 0.00 54 1011.6
20260505151016 77 315 4.0 8.0 0.00 0.00 0.00 55 1011.5
20260505125015 69 315 7.0 14.0 0.00 0.00 0.00 61 1011.5
20260505124036 69 338 3.0 11.0 0.00 0.00 0.00 65 1011.6
20260505123015 68 270 6.0 14.0 0.00 0.00 0.00 65 1011.6
20260505122016 67 270 4.0 9.0 0.00 0.00 0.00 66 1011.6
20260505121015 66 293 6.0 16.0 0.00 0.00 0.00 66 1011.5
20260505120015 66 315 4.0 10.0 0.00 0.00 0.00 67 1011.5
20260505115036 65 293 4.0 11.0 0.00 0.00 0.00 69 1011.5
20260505114018 64 270 5.0 14.0 0.00 0.00 0.00 71 1011.5
20260505113017 63 315 3.0 8.0 0.00 0.00 0.00 73 1011.3
20260505112038 62 315 3.0 8.0 0.00 0.00 0.00 75 1011.2
20260505111017 61 270 2.0 6.0 0.00 0.00 0.00 77 1011.1
20260505102017 58 315 1.0 3.0 0.00 0.00 0.00 82 1011.0
20260505101039 58 315 1.0 3.0 0.00 0.00 0.00 83 1010.8
20260505100017 58 315 2.0 5.0 0.00 0.00 0.00 84 1010.8
20260505095038 58 315 1.0 5.0 0.00 0.00 0.00 84 1010.8
20260505094037 58 0.0 2.0 0.00 0.00 0.00 84 1010.8
20260505093017 58 315 1.0 3.0 0.00 0.00 0.00 84 1010.8
20260505092017 58 0.0 2.0 0.00 0.00 0.00 84 1010.8
20260505091017 58 0.0 3.0 0.00 0.00 0.00 85 1010.7
20260505090017 58 315 1.0 2.0 0.00 0.00 0.00 84 1010.7
20260505085017 58 0.0 1.0 0.00 0.00 0.00 84 1010.8
20260505084017 59 0.0 0.0 0.00 0.00 0.00 84 1010.9
20260505083017 59 0.0 0.0 0.00 0.00 0.00 83 1011.0
20260505082017 59 0.0 1.0 0.00 0.00 0.00 83 1011.0
20260505081017 59 0.0 2.0 0.00 0.00 0.00 83 1011.1
20260505080017 59 315 1.0 4.0 0.00 0.00 0.00 82 1011.2
20260505075017 59 0.0 3.0 0.00 0.00 0.00 81 1011.2
20260505074017 59 0.0 1.0 0.00 0.00 0.00 81 1011.0
20260505073058 59 315 2.0 5.0 0.00 0.00 0.00 81 1010.8
20260505072017 58 315 1.0 4.0 0.00 0.00 0.00 82 1010.8
20260505071058 58 315 1.0 4.0 0.00 0.00 0.00 82 1010.9
20260505070017 58 315 1.0 4.0 0.00 0.00 0.00 81 1010.9
20260505065017 58 315 1.0 4.0 0.00 0.00 0.00 81 1010.8
20260505064016 58 315 1.0 4.0 0.00 0.00 0.00 81 1010.7
20260505063017 59 315 2.0 4.0 0.00 0.00 0.00 80 1010.7
20260505062017 59 315 1.0 5.0 0.00 0.00 0.00 80 1010.7
20260505061017 59 315 1.0 3.0 0.00 0.00 0.00 78 1010.7
20260505060016 59 315 2.0 4.0 0.00 0.00 0.00 78 1010.7
20260505055018 60 315 1.0 3.0 0.00 0.00 0.00 77 1010.8
20260505054017 60 315 2.0 6.0 0.00 0.00 0.00 76 1010.8
20260505053017 60 315 2.0 8.0 0.00 0.00 0.00 75 1010.9
20260505052017 61 315 2.0 8.0 0.00 0.00 0.00 74 1010.8
20260505051016 61 315 2.0 9.0 0.00 0.00 0.00 74 1010.9
20260505041016 60 315 1.0 5.0 0.00 0.00 0.00 73 1010.8
20260505040036 61 315 3.0 6.0 0.00 0.00 0.00 72 1010.8
20260505035018 61 315 1.0 3.0 0.00 0.00 0.00 72 1010.7
20260505034017 61 315 2.0 8.0 0.00 0.00 0.00 72 1010.8
20260505033017 60 315 2.0 6.0 0.00 0.00 0.00 72 1010.8
20260505032017 61 315 1.0 3.0 0.00 0.00 0.00 71 1010.7
20260505031017 61 315 1.0 4.0 0.00 0.00 0.00 71 1010.7
20260505030038 61 315 1.0 5.0 0.00 0.00 0.00 70 1010.9
20260505025017 61 315 1.0 4.0 0.00 0.00 0.00 69 1010.9
20260505024017 61 315 2.0 6.0 0.00 0.00 0.00 68 1011.0
20260505023017 61 315 1.0 5.0 0.00 0.00 0.00 67 1011.1
20260505022017 61 315 1.0 5.0 0.00 0.00 0.00 65 1011.1
20260505021017 61 315 1.0 4.0 0.00 0.00 0.00 63 1011.1
20260505020017 61 315 1.0 8.0 0.00 0.00 0.00 61 1011.0
20260505015017 61 315 1.0 4.0 0.00 0.00 0.00 60 1011.0
20260505014017 61 315 1.0 4.0 0.00 0.00 0.00 61 1010.9
20260505013037 62 315 1.0 4.0 0.00 0.00 0.00 60 1010.8
20260505012017 62 0.0 2.0 0.00 0.00 0.00 60 1010.8
20260505011037 63 0.0 1.0 0.00 0.00 0.00 60 1010.6
20260505010017 63 0.0 2.0 0.00 0.00 0.00 59 1010.5
20260505005017 64 203 1.0 2.0 0.00 0.00 0.00 58 1010.4
20260505004017 64 225 1.0 3.0 0.00 0.00 0.00 57 1010.2
20260505003017 65 248 1.0 6.0 0.00 0.00 0.00 56 1010.2
20260505002017 65 248 1.0 3.0 0.00 0.00 0.00 55 1010.1
20260505001016 66 0.0 3.0 0.00 0.00 0.00 54 1010.1
20260505000016 67 0.0 1.0 0.00 0.00 0.00 52 1010.1
20260504235018 68 0.0 2.0 0.00 0.00 0.00 50 1010.0
20260504234017 69 225 1.0 3.0 0.00 0.00 0.00 49 1009.9
20260504233037 70 0.0 3.0 0.00 0.00 0.00 47 1010.0
20260504232017 70 248 2.0 4.0 0.00 0.00 0.00 46 1010.1
20260504231016 71 180 1.0 4.0 0.00 0.00 0.00 45 1010.1